Location: Bettgenhausen
(50.6463°N, 7.5681°E)
Time: 10:51:50
(UTC+00:00)

STARLINK-78 - Pass Details

Date: 27 February 2020
Orbit: 529 x 530 km, 53.0° (Epoch: 09 April)

Event Time Altitude Azimuth Distance (km) Brightness Sun altitude
Rises 18:55:58 0° 280° (W) 2,669 8.9 -18.0°
Reaches altitude 10° 18:58:13 10° 284° (WNW) 1,779 7.5 -18.4°
Maximum altitude 19:02:13 63° 6° (N) 597 3.7 -19.0°
Enters shadow 19:03:10 46° 63° (ENE) 717 3.8 -19.2°
